BAW185 EGLL-KEWR

Flight info

Callsign BAW185
Flight time N/A
Altitude 38000
Route CPT DCT DIDZA L9 OKSAW DCT BIBPE DCT BUCGO DCT FELCA DCT OFSOX DCT SLANY DCT MALOT/M082F390 NATE RIKAL/N0480F400 N576B ANATI DCT IMORI DCT HANAA FLOSI4
Aircraft B772/H-SDE2E3FGHIJ5LORVWXY/LB1D1

Departure

Time N/A
Airport London Heathrow Airport (EGLL)

Arrival

Time 2026-04-24 16:12
Airport Newark Liberty International Airport (KEWR)
Time Latitude Longitude Altitude Speed Heading
2026-04-24 15:46 41.63308 -74.40948 21926 ft 230 kts 305°
2026-04-24 15:46 41.64288 -74.42622 21944 ft 229 kts 316°
2026-04-24 15:46 41.65549 -74.43924 21921 ft 232 kts 327°
2026-04-24 15:46 41.67016 -74.44808 21927 ft 230 kts 335°
2026-04-24 15:47 41.68539 -74.45402 21914 ft 231 kts 342°
2026-04-24 15:47 41.70167 -74.45539 21919 ft 243 kts 359°
2026-04-24 15:47 41.71837 -74.44949 21931 ft 251 kts
2026-04-24 15:47 41.73488 -74.44254 21929 ft 253 kts
2026-04-24 15:48 41.75171 -74.43543 21938 ft 254 kts
2026-04-24 15:48 41.76859 -74.42835 21937 ft 255 kts
2026-04-24 15:48 41.78555 -74.42127 21927 ft 256 kts
2026-04-24 15:48 41.80255 -74.41423 21936 ft 256 kts
2026-04-24 15:49 41.81896 -74.40448 21925 ft 270 kts 25°
2026-04-24 15:49 41.83249 -74.38584 21949 ft 290 kts 41°
2026-04-24 15:49 41.84267 -74.36169 21943 ft 306 kts 56°
2026-04-24 15:49 41.84845 -74.33353 21945 ft 324 kts 73°
2026-04-24 15:50 41.84756 -74.30263 21937 ft 342 kts 96°
2026-04-24 15:50 41.83794 -74.27286 21927 ft 354 kts 124°
2026-04-24 15:50 41.82026 -74.25010 21930 ft 354 kts 152°
2026-04-24 15:50 41.79787 -74.23829 21943 ft 341 kts 178°
2026-04-24 15:51 41.77468 -74.23691 21950 ft 328 kts 198°
2026-04-24 15:51 41.75299 -74.24374 21951 ft 317 kts 209°
2026-04-24 15:51 41.73194 -74.25293 21939 ft 319 kts 210°
2026-04-24 15:51 41.71072 -74.26222 21947 ft 323 kts 209°
2026-04-24 15:52 41.68925 -74.27132 21922 ft 324 kts 208°
2026-04-24 15:52 41.66769 -74.28028 21941 ft 324 kts 209°
2026-04-24 15:52 41.64577 -74.28975 21963 ft 341 kts 209°
2026-04-24 15:52 41.62249 -74.30005 21951 ft 364 kts 208°
2026-04-24 15:53 41.59789 -74.31081 21594 ft 378 kts 207°
2026-04-24 15:53 41.57279 -74.32158 21220 ft 378 kts 207°
2026-04-24 15:53 41.54786 -74.33224 20853 ft 375 kts 207°
2026-04-24 15:53 41.52316 -74.34284 20480 ft 371 kts 208°
2026-04-24 15:54 41.49862 -74.35343 20124 ft 368 kts 208°
2026-04-24 15:54 41.47437 -74.36392 19754 ft 365 kts 207°
2026-04-24 15:54 41.45029 -74.37431 19409 ft 362 kts 207°
2026-04-24 15:54 41.42636 -74.38460 19038 ft 360 kts 208°
2026-04-24 15:55 41.40265 -74.39481 18685 ft 357 kts 208°
2026-04-24 15:55 41.37903 -74.40499 18319 ft 356 kts 208°
2026-04-24 15:55 41.35583 -74.41497 17922 ft 354 kts 208°
2026-04-24 15:55 41.33217 -74.42515 17493 ft 352 kts 207°
2026-04-24 15:56 41.30896 -74.43510 17126 ft 349 kts 207°
2026-04-24 15:56 41.28626 -74.44483 16798 ft 346 kts 207°
2026-04-24 15:56 41.26321 -74.45469 16492 ft 341 kts 207°
2026-04-24 15:56 41.24104 -74.46416 16151 ft 338 kts 207°
2026-04-24 15:57 41.21873 -74.47371 15793 ft 336 kts 207°
2026-04-24 15:57 41.19651 -74.48322 15448 ft 335 kts 207°
2026-04-24 15:57 41.18155 -74.48962 15195 ft 334 kts 207°
2026-04-24 15:57 41.15231 -74.50216 14708 ft 332 kts 207°
2026-04-24 15:58 41.13007 -74.51164 14337 ft 331 kts 206°
2026-04-24 15:58 41.10846 -74.52084 13980 ft 330 kts 207°
2026-04-24 15:58 41.08660 -74.53016 13601 ft 330 kts 206°
2026-04-24 15:58 41.06466 -74.53900 13191 ft 329 kts 201°
2026-04-24 15:59 41.04181 -74.54327 12822 ft 334 kts 192°
2026-04-24 15:59 41.01858 -74.54497 12455 ft 334 kts 189°
2026-04-24 15:59 40.99541 -74.54624 12092 ft 333 kts 189°
2026-04-24 15:59 40.97239 -74.54766 11665 ft 330 kts 190°
2026-04-24 16:00 40.94955 -74.54934 11334 ft 327 kts 191°
2026-04-24 16:00 40.92695 -74.55135 10975 ft 325 kts 191°
2026-04-24 16:00 40.90437 -74.55343 10630 ft 325 kts 191°
2026-04-24 16:00 40.88184 -74.55550 10279 ft 325 kts 191°
2026-04-24 16:01 40.85942 -74.55752 10068 ft 319 kts 192°
2026-04-24 16:01 40.83756 -74.55950 9817 ft 313 kts 191°
2026-04-24 16:01 40.81576 -74.56042 9501 ft 314 kts 186°
2026-04-24 16:01 40.79381 -74.55932 9112 ft 317 kts 183°
2026-04-24 16:02 40.77180 -74.55773 8714 ft 317 kts 182°
2026-04-24 16:02 40.74982 -74.55619 8380 ft 316 kts 182°
2026-04-24 16:02 40.72788 -74.55482 8026 ft 315 kts 182°
2026-04-24 16:02 40.70602 -74.55358 7691 ft 314 kts 182°
2026-04-24 16:03 40.68459 -74.55241 7376 ft 312 kts 182°
2026-04-24 16:03 40.66291 -74.55127 7060 ft 311 kts 181°
2026-04-24 16:03 40.64165 -74.54842 6721 ft 306 kts 165°
2026-04-24 16:03 40.62324 -74.53519 6430 ft 298 kts 141°
2026-04-24 16:04 40.60683 -74.51880 5906 ft 294 kts 141°
2026-04-24 16:04 40.59044 -74.50287 5307 ft 291 kts 142°
2026-04-24 16:04 40.57438 -74.48735 4905 ft 281 kts 143°
2026-04-24 16:04 40.55878 -74.47230 4611 ft 277 kts 143°
2026-04-24 16:05 40.52855 -74.44327 4271 ft 252 kts 143°
2026-04-24 16:05 40.51460 -74.42989 4177 ft 245 kts 143°
2026-04-24 16:06 40.49176 -74.39975 3931 ft 230 kts 102°
2026-04-24 16:06 40.49148 -74.37931 3791 ft 223 kts 73°
2026-04-24 16:06 40.49902 -74.34733 3511 ft 221 kts 69°
2026-04-24 16:07 40.50355 -74.32805 3323 ft 222 kts 69°
2026-04-24 16:07 40.50806 -74.30882 3125 ft 217 kts 69°
2026-04-24 16:07 40.52115 -74.27769 2879 ft 192 kts 29°
2026-04-24 16:08 40.53247 -74.26859 2829 ft 184 kts 30°
2026-04-24 16:08 40.55345 -74.25321 2754 ft 174 kts 26°
2026-04-24 16:09 40.57517 -74.23952 2310 ft 166 kts 28°
2026-04-24 16:09 40.58508 -74.23304 2094 ft 153 kts 26°
2026-04-24 16:09 40.59437 -74.22712 1887 ft 145 kts 26°
2026-04-24 16:09 40.60331 -74.22143 1724 ft 140 kts 26°
2026-04-24 16:10 40.62958 -74.20475 1148 ft 126 kts 27°
2026-04-24 16:11 40.64508 -74.19491 808 ft 127 kts 28°
2026-04-24 16:11 40.65338 -74.18963 681 ft 134 kts 28°
2026-04-24 16:11 40.66177 -74.18449 473 ft 134 kts 25°
2026-04-24 16:12 40.67837 -74.17376 109 ft 132 kts 30°
2026-04-24 16:12 40.68648 -74.16870 28 ft 126 kts 33°
2026-04-24 16:12 40.69646 -74.16225 27 ft 29 kts 26°
2026-04-24 16:13 40.69734 -74.16171 29 ft 7 kts 25°
2026-04-24 16:13 40.69808 -74.16232 29 ft 7 kts 299°
2026-04-24 16:14 40.69855 -74.16348 25 ft 7 kts 298°
2026-04-24 16:14 40.69875 -74.16408 27 ft 7 kts 294°
2026-04-24 16:14 40.69907 -74.16532 28 ft 7 kts 284°
2026-04-24 16:15 40.69910 -74.16575 25 ft 7 kts 271°
2026-04-24 16:15 40.69909 -74.16745 26 ft 7 kts 238°
2026-04-24 16:16 40.69780 -74.16800 26 ft 15 kts 206°
2026-04-24 16:16 40.69688 -74.16860 26 ft 15 kts 206°
2026-04-24 16:17 40.69409 -74.17036 26 ft 15 kts 206°
2026-04-24 16:17 40.69226 -74.17153 26 ft 10 kts 206°
2026-04-24 16:18 40.69182 -74.17260 26 ft 8 kts 274°
2026-04-24 16:18 40.69187 -74.17328 26 ft 0 kts 275°
2026-04-24 16:18 40.69187 -74.17331 26 ft 0 kts 275°